Location: Boiro
(42.6475°N, 8.8834°W)
Time: 02:09:35
(UTC+01:00)

Vanguard 3 - Pass Details

Date: 30 November 2021
Orbit: 508 x 3260 km, 33.3° (Epoch: 19 January)

Event Time Altitude Azimuth Distance (km) Brightness Sun altitude
Exits shadow 03:45:54 19° 168° (SSE) 5,430 11.1 -53.8°
Maximum altitude 03:53:20 24° 141° (SE) 5,013 11.1 -52.5°
Drops below altitude 10° 04:05:49 10° 97° (E) 5,597 11.8 -50.4°
Sets 04:10:51 0° 85° (E) 6,255 12.3 -49.5°
